Hourly Weather Almaly

Today, 6 March, Saturday

Time Temperature Precipitation Wind Pressure Humidity
00:00 -6°C° 0 mm 2 mps 701 mmHg 62%
01:00 -6°C° 0 mm 2 mps 700 mmHg 58%
02:00 -7°C° 0 mm 2 mps 699 mmHg 54%
03:00 -7°C° 0 mm 2 mps 698 mmHg 51%
04:00 -6°C° 0 mm 2 mps 698 mmHg 47%
05:00 -6°C° 0 mm 2 mps 698 mmHg 44%
06:00 -5°C° 0 mm 2 mps 697 mmHg 46%
07:00 -4°C° 0 mm 2 mps 697 mmHg 48%
08:00 -1°C° 0 mm 1 mps 696 mmHg 50%
09:00 0°C° 0 mm 1 mps 696 mmHg 58%
10:00 +1°C° 0 mm 1 mps 696 mmHg 65%
11:00 +3°C° 0 mm 1 mps 695 mmHg 72%
12:00 +3°C° 0 mm 1 mps 695 mmHg 75%
13:00 +3°C° 0 mm 1 mps 694 mmHg 78%
14:00 +3°C° 0 mm 1 mps 693 mmHg 81%
15:00 +3°C° 0 mm 1 mps 693 mmHg 73%
16:00 +2°C° 0 mm 1 mps 692 mmHg 66%
17:00 -1°C° 0 mm 2 mps 692 mmHg 58%
18:00 -1°C° 0 mm 2 mps 692 mmHg 54%
19:00 0°C° 0 mm 1 mps 692 mmHg 51%
20:00 0°C° 0 mm 1 mps 692 mmHg 47%
21:00 0°C° 0 mm 1 mps 692 mmHg 45%
22:00 0°C° 0 mm 1 mps 692 mmHg 43%
23:00 -3°C° 0 mm 2 mps 692 mmHg 41%

Tomorrow, 7 March, Sunday

Time Temperature Precipitation Wind Pressure Humidity
00:00 -3°C° 0 mm 2 mps 691 mmHg 40%
01:00 -3°C° 0 mm 2 mps 691 mmHg 39%
02:00 -3°C° 0 mm 2 mps 691 mmHg 38%
03:00 -1°C° 0 mm 1 mps 691 mmHg 38%
04:00 -1°C° 0 mm 1 mps 691 mmHg 38%
05:00 -1°C° 0 mm 1 mps 692 mmHg 37%
06:00 0°C° 0 mm 1 mps 692 mmHg 42%
07:00 +1°C° 0 mm 1 mps 693 mmHg 47%
08:00 +1°C° 0 mm 1 mps 693 mmHg 52%
09:00 +2°C° 0 mm 1 mps 693 mmHg 64%
10:00 +2°C° 0 mm 0 mps 694 mmHg 76%
11:00 +2°C° 0 mm 0 mps 694 mmHg 87%
12:00 +2°C° 0 mm 0 mps 694 mmHg 89%
13:00 +2°C° 0 mm 0 mps 694 mmHg 91%
14:00 +2°C° 0 mm 0 mps 694 mmHg 93%
15:00 +1°C° 0 mm 0 mps 694 mmHg 86%
16:00 0°C° 0 mm 0 mps 694 mmHg 79%
17:00 -1°C° 0 mm 0 mps 694 mmHg 71%
18:00 -1°C° 0 mm 0 mps 694 mmHg 68%
19:00 0°C° 0 mm 1 mps 694 mmHg 64%
20:00 0°C° 0 mm 1 mps 695 mmHg 60%
21:00 0°C° 0 mm 1 mps 694 mmHg 58%
22:00 0°C° 0 mm 1 mps 694 mmHg 56%
23:00 0°C° 0 mm 1 mps 694 mmHg 55%

Day after tomorrow, 8 March, Monday

Time Temperature Precipitation Wind Pressure Humidity
00:00 0°C° 0 mm 1 mps 694 mmHg 54%
01:00 0°C° 0 mm 1 mps 694 mmHg 53%
02:00 0°C° 0 mm 1 mps 693 mmHg 51%
03:00 0°C° 0 mm 1 mps 693 mmHg 51%
04:00 0°C° 0 mm 1 mps 693 mmHg 51%
05:00 +1°C° 0 mm 1 mps 694 mmHg 51%
06:00 +1°C° 0 mm 1 mps 694 mmHg 55%
07:00 +2°C° 0 mm 1 mps 694 mmHg 58%
08:00 +3°C° 0 mm 1 mps 694 mmHg 62%
09:00 +3°C° 0 mm 1 mps 694 mmHg 73%
10:00 +3°C° 0 mm 0 mps 695 mmHg 83%
11:00 +3°C° 0 mm 0 mps 695 mmHg 94%
12:00 +3°C° 0 mm 0 mps 695 mmHg 95%
13:00 +3°C° 0 mm 0 mps 695 mmHg 95%
14:00 +3°C° 0 mm 0 mps 695 mmHg 96%
15:00 +4°C° 0.1 mm 1 mps 695 mmHg 89%
16:00 +4°C° 0.1 mm 1 mps 695 mmHg 83%
17:00 +4°C° 0.1 mm 1 mps 696 mmHg 76%
18:00 +4°C° 0 mm 1 mps 696 mmHg 75%
19:00 +4°C° 0 mm 1 mps 697 mmHg 73%
20:00 +4°C° 0 mm 1 mps 697 mmHg 72%
21:00 +4°C° 0 mm 1 mps 697 mmHg 71%
22:00 +4°C° 0 mm 1 mps 697 mmHg 70%
23:00 +4°C° 0 mm 1 mps 697 mmHg 68%

9 March, Tuesday

Time Temperature Precipitation Wind Pressure Humidity
00:00 +4°C° 0 mm 1 mps 697 mmHg 67%
01:00 +4°C° 0 mm 1 mps 697 mmHg 67%
02:00 +4°C° 0 mm 1 mps 697 mmHg 66%
03:00 +3°C° 0 mm 1 mps 697 mmHg 65%
04:00 +3°C° 0 mm 1 mps 697 mmHg 65%
05:00 +2°C° 0 mm 1 mps 697 mmHg 64%
06:00 +3°C° 0 mm 1 mps 697 mmHg 66%
07:00 +4°C° 0 mm 1 mps 697 mmHg 67%
08:00 +4°C° 0 mm 1 mps 698 mmHg 69%
09:00 +5°C° 0 mm 1 mps 697 mmHg 78%
10:00 +5°C° 0 mm 1 mps 697 mmHg 88%
11:00 +5°C° 0 mm 1 mps 696 mmHg 97%
12:00 +5°C° 0 mm 1 mps 696 mmHg 97%
13:00 +5°C° 0 mm 1 mps 695 mmHg 97%
14:00 +5°C° 0 mm 1 mps 694 mmHg 97%
15:00 +5°C° 0 mm 1 mps 694 mmHg 89%
16:00 +5°C° 0 mm 1 mps 693 mmHg 81%
17:00 +4°C° 0 mm 1 mps 693 mmHg 73%
18:00 +4°C° 0 mm 1 mps 693 mmHg 68%
19:00 +3°C° 0 mm 2 mps 693 mmHg 64%
20:00 +3°C° 0 mm 2 mps 693 mmHg 59%
21:00 +3°C° 0 mm 2 mps 692 mmHg 57%
22:00 +3°C° 0 mm 2 mps 692 mmHg 54%
23:00 +3°C° 0 mm 2 mps 691 mmHg 52%

10 March, Wednesday

Time Temperature Precipitation Wind Pressure Humidity
00:00 +3°C° 0 mm 2 mps 691 mmHg 51%
01:00 +3°C° 0 mm 2 mps 690 mmHg 49%
02:00 +3°C° 0 mm 2 mps 690 mmHg 48%
03:00 +3°C° 0 mm 2 mps 689 mmHg 49%
04:00 +3°C° 0 mm 2 mps 689 mmHg 49%
05:00 +3°C° 0 mm 2 mps 689 mmHg 50%
06:00 +4°C° 0 mm 2 mps 688 mmHg 52%
07:00 +4°C° 0 mm 2 mps 688 mmHg 55%
08:00 +6°C° 0 mm 1 mps 688 mmHg 58%
09:00 +6°C° 0 mm 1 mps 688 mmHg 71%
10:00 +6°C° 0 mm 1 mps 688 mmHg 85%
11:00 +7°C° 0 mm 1 mps 687 mmHg 98%
12:00 +7°C° 0 mm 1 mps 687 mmHg 98%
13:00 +7°C° 0 mm 1 mps 687 mmHg 97%
14:00 +7°C° 0 mm 1 mps 687 mmHg 96%
15:00 +7°C° 0 mm 1 mps 687 mmHg 85%
16:00 +7°C° 0 mm 1 mps 687 mmHg 75%
17:00 +7°C° 0 mm 1 mps 687 mmHg 64%
18:00 +6°C° 0 mm 2 mps 688 mmHg 61%
19:00 +6°C° 0 mm 2 mps 689 mmHg 58%
20:00 +6°C° 0 mm 2 mps 690 mmHg 56%
21:00 +4°C° 0.2 mm 3 mps 691 mmHg 67%
22:00 +3°C° 0.2 mm 3 mps 692 mmHg 77%
23:00 +3°C° 0.2 mm 4 mps 693 mmHg 88%

11 March, Thursday

Time Temperature Precipitation Wind Pressure Humidity
00:00 +2°C° 0.6 mm 3 mps 693 mmHg 90%
01:00 +2°C° 0.6 mm 3 mps 694 mmHg 93%
02:00 +3°C° 0.6 mm 2 mps 694 mmHg 95%
03:00 +2°C° 0.2 mm 2 mps 695 mmHg 95%
04:00 +2°C° 0.2 mm 2 mps 695 mmHg 95%
05:00 +2°C° 0.2 mm 2 mps 696 mmHg 94%
06:00 +1°C° 0.3 mm 2 mps 696 mmHg 94%
07:00 +1°C° 0.3 mm 1 mps 696 mmHg 94%
08:00 +1°C° 0.3 mm 1 mps 697 mmHg 94%
09:00 +1°C° 0 mm 1 mps 697 mmHg 95%
10:00 +1°C° 0 mm 1 mps 696 mmHg 95%
11:00 +1°C° 0 mm 1 mps 696 mmHg 96%
12:00 +1°C° 0 mm 1 mps 696 mmHg 96%
13:00 +2°C° 0 mm 1 mps 696 mmHg 97%
14:00 +2°C° 0 mm 1 mps 696 mmHg 98%
15:00 +1°C° 0 mm 1 mps 696 mmHg 96%
16:00 +1°C° 0 mm 1 mps 696 mmHg 94%
17:00 +1°C° 0 mm 1 mps 696 mmHg 93%
18:00 +1°C° 0 mm 1 mps 697 mmHg 89%
19:00 0°C° 0 mm 1 mps 697 mmHg 85%
20:00 -2°C° 0 mm 2 mps 697 mmHg 81%
21:00 0°C° 0 mm 1 mps 697 mmHg 79%
22:00 0°C° 0 mm 1 mps 697 mmHg 77%
23:00 0°C° 0 mm 1 mps 696 mmHg 74%
Show more